| time (UTC) | temp C | wind direction | speed KPH | gust KPH | rain 1hr cm | rain 24hr cm | rain mn cm | humidity % | barometer mb |
| 20260506215020 | 17 | 36 | 3.2 | 9.7 | 0.00 | 0.03 | 0.03 | 77 | 1011.9 |
| 20260506214520 | 17 | 50 | 3.2 | 9.7 | 0.00 | 0.03 | 0.03 | 77 | 1011.9 |
| 20260506214017 | 18 | 43 | 4.8 | 12.9 | 0.00 | 0.03 | 0.03 | 77 | 1011.8 |
| 20260506213518 | 18 | 46 | 3.2 | 9.7 | 0.00 | 0.03 | 0.03 | 76 | 1011.8 |
| 20260506213018 | 18 | 49 | 3.2 | 8.0 | 0.00 | 0.03 | 0.03 | 76 | 1011.8 |
| 20260506212522 | 18 | 48 | 3.2 | 9.7 | 0.00 | 0.03 | 0.03 | 76 | 1011.9 |
| 20260506212021 | 19 | 20 | 3.2 | 11.3 | 0.00 | 0.03 | 0.03 | 74 | 1011.9 |
| 20260506211517 | 19 | 33 | 3.2 | 11.3 | 0.00 | 0.03 | 0.03 | 73 | 1012.0 |
| 20260506211021 | 19 | 32 | 3.2 | 12.9 | 0.00 | 0.03 | 0.03 | 73 | 1012.0 |
| 20260506210515 | 19 | 65 | 3.2 | 9.7 | 0.00 | 0.03 | 0.03 | 73 | 1012.1 |
| 20260506210015 | 19 | 67 | 3.2 | 9.7 | 0.00 | 0.03 | 0.03 | 75 | 1012.2 |
| 20260506205518 | 19 | 28 | 4.8 | 9.7 | 0.00 | 0.03 | 0.03 | 74 | 1012.2 |
| 20260506205018 | 20 | 95 | 3.2 | 6.4 | 0.00 | 0.03 | 0.03 | 73 | 1012.3 |
| 20260506204518 | 20 | 76 | 3.2 | 9.7 | 0.00 | 0.03 | 0.03 | 72 | 1012.3 |
| 20260506204021 | 20 | 64 | 3.2 | 9.7 | 0.00 | 0.03 | 0.03 | 73 | 1012.4 |
| 20260506203519 | 20 | 45 | 3.2 | 11.3 | 0.00 | 0.03 | 0.03 | 72 | 1012.3 |
| 20260506203019 | 20 | 23 | 3.2 | 9.7 | 0.00 | 0.03 | 0.03 | 72 | 1012.3 |
| 20260506202516 | 20 | 59 | 3.2 | 14.5 | 0.00 | 0.03 | 0.03 | 73 | 1012.2 |
| 20260506202016 | 20 | 39 | 4.8 | 12.9 | 0.00 | 0.03 | 0.03 | 74 | 1012.1 |
| 20260506201518 | 20 | 56 | 3.2 | 11.3 | 0.00 | 0.03 | 0.03 | 75 | 1012.1 |
| 20260506201020 | 20 | 52 | 4.8 | 11.3 | 0.00 | 0.03 | 0.03 | 74 | 1012.0 |
| 20260506200519 | 20 | 45 | 3.2 | 12.9 | 0.00 | 0.03 | 0.03 | 75 | 1011.9 |
| 20260506200016 | 21 | 135 | 3.2 | 9.7 | 0.00 | 0.03 | 0.03 | 75 | 1011.9 |
| 20260506195519 | 21 | 57 | 3.2 | 11.3 | 0.00 | 0.03 | 0.03 | 74 | 1011.9 |
| 20260506195016 | 21 | 120 | 3.2 | 11.3 | 0.00 | 0.03 | 0.03 | 73 | 1011.8 |
| 20260506194519 | 21 | 86 | 3.2 | 9.7 | 0.00 | 0.03 | 0.03 | 75 | 1011.7 |
| 20260506194016 | 21 | 45 | 3.2 | 11.3 | 0.00 | 0.03 | 0.03 | 75 | 1011.6 |
| 20260506193516 | 21 | 235 | 3.2 | 9.7 | 0.00 | 0.03 | 0.03 | 75 | 1011.7 |
| 20260506193016 | 22 | 14 | 3.2 | 9.7 | 0.00 | 0.03 | 0.03 | 74 | 1011.7 |
| 20260506192517 | 22 | 358 | 3.2 | 9.7 | 0.00 | 0.03 | 0.03 | 73 | 1011.7 |
| 20260506192016 | 23 | 213 | 3.2 | 11.3 | 0.00 | 0.03 | 0.03 | 72 | 1011.6 |
| 20260506191517 | 23 | 251 | 3.2 | 9.7 | 0.00 | 0.03 | 0.03 | 72 | 1011.6 |
| 20260506191021 | 23 | 61 | 1.6 | 6.4 | 0.00 | 0.03 | 0.03 | 74 | 1011.7 |
| 20260506190520 | 23 | 127 | 1.6 | 4.8 | 0.00 | 0.03 | 0.03 | 74 | 1011.9 |
| 20260506190018 | 24 | 99 | 1.6 | 6.4 | 0.00 | 0.03 | 0.03 | 73 | 1011.9 |
| 20260506185520 | 24 | 359 | 1.6 | 6.4 | 0.00 | 0.03 | 0.03 | 73 | 1011.8 |
| 20260506185016 | 24 | 25 | 1.6 | 8.0 | 0.00 | 0.03 | 0.03 | 72 | 1011.8 |
| 20260506184517 | 25 | 37 | 3.2 | 9.7 | 0.00 | 0.03 | 0.03 | 71 | 1011.6 |
| 20260506184017 | 25 | 18 | 3.2 | 8.0 | 0.00 | 0.03 | 0.03 | 70 | 1011.6 |
| 20260506183517 | 25 | 66 | 1.6 | 6.4 | 0.00 | 0.03 | 0.03 | 71 | 1011.6 |
| 20260506183017 | 25 | 24 | 3.2 | 11.3 | 0.00 | 0.03 | 0.03 | 70 | 1011.6 |
| 20260506182520 | 25 | 26 | 1.6 | 8.0 | 0.00 | 0.03 | 0.03 | 70 | 1011.6 |
| 20260506182020 | 25 | 20 | 1.6 | 6.4 | 0.00 | 0.03 | 0.03 | 70 | 1011.5 |
| 20260506181521 | 25 | 305 | 1.6 | 9.7 | 0.00 | 0.03 | 0.03 | 70 | 1011.6 |
| 20260506181018 | 25 | 331 | 1.6 | 8.0 | 0.00 | 0.03 | 0.03 | 70 | 1011.6 |
| 20260506180520 | 24 | 183 | 1.6 | 4.8 | 0.00 | 0.03 | 0.03 | 70 | 1011.5 |
| 20260506180020 | 23 | 128 | 1.6 | 6.4 | 0.00 | 0.03 | 0.03 | 72 | 1011.5 |
| 20260506175518 | 23 | 113 | 1.6 | 4.8 | 0.00 | 0.03 | 0.03 | 72 | 1011.4 |
| 20260506175020 | 23 | 37 | 1.6 | 9.7 | 0.00 | 0.03 | 0.03 | 73 | 1011.4 |
| 20260506174517 | 23 | 29 | 1.6 | 8.0 | 0.00 | 0.03 | 0.03 | 73 | 1011.3 |
| 20260506174020 | 23 | 26 | 1.6 | 6.4 | 0.00 | 0.03 | 0.03 | 73 | 1011.2 |
| 20260506173518 | 22 | 77 | 1.6 | 4.8 | 0.00 | 0.03 | 0.03 | 73 | 1011.3 |
| 20260506173020 | 22 | 43 | 1.6 | 6.4 | 0.00 | 0.03 | 0.03 | 74 | 1011.4 |
| 20260506172515 | 22 | 49 | 1.6 | 8.0 | 0.00 | 0.03 | 0.03 | 75 | 1011.5 |
| 20260506172016 | 22 | 52 | 1.6 | 6.4 | 0.00 | 0.03 | 0.03 | 75 | 1011.6 |
| 20260506171515 | 22 | 59 | 1.6 | 8.0 | 0.00 | 0.03 | 0.03 | 76 | 1011.5 |
| 20260506171018 | 21 | 134 | 3.2 | 9.7 | 0.00 | 0.03 | 0.03 | 76 | 1011.4 |
| 20260506170518 | 21 | 155 | 1.6 | 8.0 | 0.00 | 0.03 | 0.03 | 77 | 1011.5 |
| 20260506170019 | 21 | 50 | 3.2 | 9.7 | 0.00 | 0.03 | 0.03 | 78 | 1011.5 |
| 20260506165516 | 21 | 71 | 1.6 | 8.0 | 0.00 | 0.03 | 0.03 | 80 | 1011.5 |
| 20260506165018 | 20 | 92 | 1.6 | 6.4 | 0.00 | 0.03 | 0.03 | 80 | 1011.8 |
| 20260506164519 | 19 | 59 | 1.6 | 6.4 | 0.00 | 0.03 | 0.03 | 83 | 1012.1 |
| 20260506164015 | 18 | 82 | 1.6 | 6.4 | 0.03 | 0.03 | 0.03 | 85 | 1012.1 |
| 20260506163516 | 18 | 11 | 3.2 | 8.0 | 0.03 | 0.03 | 0.03 | 87 | 1012.2 |
| 20260506163019 | 17 | 31 | 3.2 | 11.3 | 0.03 | 0.03 | 0.03 | 90 | 1012.2 |
| 20260506162533 | 17 | 46 | 1.6 | 6.4 | 0.03 | 0.03 | 0.03 | 92 | 1012.4 |
| 20260506162028 | 17 | 85 | 1.6 | 4.8 | 0.03 | 0.03 | 0.03 | 93 | 1012.8 |
| 20260506161528 | 17 | 51 | 1.6 | 4.8 | 0.03 | 0.03 | 0.03 | 93 | 1013.2 |
| 20260506161031 | 17 | 33 | 1.6 | 6.4 | 0.03 | 0.03 | 0.03 | 93 | 1013.1 |
| 20260506160516 | 17 | 33 | 3.2 | 9.7 | 0.03 | 0.03 | 0.03 | 93 | 1013.2 |
| 20260506160020 | 17 | 43 | 4.8 | 9.7 | 0.03 | 0.03 | 0.03 | 92 | 1013.1 |
| 20260506155533 | 17 | 45 | 3.2 | 6.4 | 0.03 | 0.03 | 0.03 | 92 | 1013.1 |
| 20260506155017 | 18 | 35 | 3.2 | 8.0 | 0.03 | 0.03 | 0.03 | 91 | 1013.1 |
| 20260506154529 | 18 | 283 | 3.2 | 6.4 | 0.03 | 0.03 | 0.03 | 90 | 1012.7 |
| 20260506154031 | 19 | 14 | 3.2 | 6.4 | 0.00 | 0.03 | 0.00 | 89 | 1012.6 |
| 20260506153529 | 19 | 54 | 3.2 | 6.4 | 0.00 | 0.03 | 0.00 | 89 | 1012.7 |
| 20260506153031 | 20 | 51 | 3.2 | 8.0 | 0.00 | 0.03 | 0.00 | 89 | 1012.5 |
| 20260506152529 | 20 | 85 | 3.2 | 8.0 | 0.00 | 0.03 | 0.00 | 88 | 1012.3 |
| 20260506152032 | 21 | 254 | 3.2 | 6.4 | 0.00 | 0.03 | 0.00 | 86 | 1012.0 |
| 20260506151529 | 22 | 57 | 1.6 | 4.8 | 0.00 | 0.03 | 0.00 | 84 | 1011.9 |
| 20260506151029 | 24 | 200 | 3.2 | 8.0 | 0.00 | 0.03 | 0.00 | 81 | 1011.8 |
| 20260506150532 | 25 | 245 | 1.6 | 6.4 | 0.00 | 0.03 | 0.00 | 84 | 1011.3 |
| 20260506150033 | 25 | 0.0 | 0.0 | 0.00 | 0.03 | 0.00 | 84 | 1011.2 | |
| 20260506145529 | 25 | 148 | 0.0 | 1.6 | 0.00 | 0.03 | 0.00 | 85 | 1010.8 |
| 20260506145032 | 25 | 151 | 0.0 | 1.6 | 0.00 | 0.03 | 0.00 | 85 | 1010.7 |
| 20260506144529 | 25 | 166 | 0.0 | 1.6 | 0.00 | 0.03 | 0.00 | 85 | 1010.5 |
| 20260506144029 | 26 | 152 | 0.0 | 1.6 | 0.00 | 0.03 | 0.00 | 84 | 1010.3 |
| 20260506143529 | 26 | 138 | 1.6 | 3.2 | 0.00 | 0.03 | 0.00 | 84 | 1010.3 |
| 20260506143035 | 26 | 148 | 0.0 | 1.6 | 0.00 | 0.03 | 0.00 | 84 | 1010.2 |
| 20260506142532 | 25 | 129 | 0.0 | 3.2 | 0.00 | 0.03 | 0.00 | 84 | 1010.1 |
| 20260506142029 | 25 | 212 | 0.0 | 3.2 | 0.00 | 0.03 | 0.00 | 85 | 1009.9 |
| 20260506141532 | 25 | 154 | 0.0 | 1.6 | 0.00 | 0.03 | 0.00 | 86 | 1009.8 |
| 20260506141032 | 25 | 177 | 0.0 | 1.6 | 0.00 | 0.03 | 0.00 | 87 | 1009.9 |
| 20260506140529 | 25 | 196 | 0.0 | 1.6 | 0.00 | 0.03 | 0.00 | 87 | 1010.2 |
| 20260506140030 | 25 | 152 | 0.0 | 1.6 | 0.00 | 0.03 | 0.00 | 87 | 1010.3 |
| 20260506135530 | 25 | 173 | 0.0 | 1.6 | 0.00 | 0.03 | 0.00 | 87 | 1010.3 |
| 20260506135019 | 25 | 172 | 0.0 | 1.6 | 0.00 | 0.03 | 0.00 | 88 | 1009.9 |
| 20260506134533 | 24 | 145 | 0.0 | 1.6 | 0.00 | 0.03 | 0.00 | 88 | 1009.7 |
| 20260506134030 | 24 | 114 | 0.0 | 3.2 | 0.00 | 0.03 | 0.00 | 89 | 1009.7 |
| 20260506133530 | 24 | 0.0 | 0.0 | 0.00 | 0.03 | 0.00 | 90 | 1009.8 | |
| 20260506133015 | 24 | 153 | 0.0 | 1.6 | 0.00 | 0.03 | 0.00 | 90 | 1009.7 |
| 20260506132520 | 23 | 119 | 0.0 | 1.6 | 0.00 | 0.03 | 0.00 | 90 | 1009.7 |
| 20260506132015 | 23 | 118 | 0.0 | 1.6 | 0.00 | 0.03 | 0.00 | 91 | 1009.6 |
| 20260506131515 | 23 | 225 | 0.0 | 1.6 | 0.00 | 0.03 | 0.00 | 92 | 1009.5 |
| 20260506131019 | 23 | 176 | 0.0 | 3.2 | 0.00 | 0.03 | 0.00 | 92 | 1009.5 |
| 20260506130518 | 23 | 160 | 0.0 | 1.6 | 0.00 | 0.03 | 0.00 | 92 | 1009.5 |
| 20260506130016 | 23 | 0.0 | 0.0 | 0.00 | 0.03 | 0.00 | 93 | 1009.5 | |
| 20260506125516 | 23 | 134 | 0.0 | 1.6 | 0.00 | 0.03 | 0.00 | 93 | 1009.3 |
| 20260506125015 | 23 | 134 | 0.0 | 1.6 | 0.00 | 0.03 | 0.00 | 94 | 1009.3 |
| 20260506124520 | 22 | 157 | 0.0 | 1.6 | 0.00 | 0.03 | 0.00 | 94 | 1009.3 |
| 20260506124016 | 22 | 174 | 0.0 | 1.6 | 0.00 | 0.03 | 0.00 | 95 | 1009.2 |
| 20260506123516 | 22 | 158 | 0.0 | 1.6 | 0.00 | 0.03 | 0.00 | 95 | 1009.2 |
| 20260506123016 | 22 | 116 | 0.0 | 1.6 | 0.00 | 0.03 | 0.00 | 96 | 1009.1 |
| 20260506122516 | 22 | 175 | 0.0 | 1.6 | 0.00 | 0.03 | 0.00 | 96 | 1009.2 |
| 20260506122020 | 22 | 166 | 0.0 | 1.6 | 0.00 | 0.03 | 0.00 | 96 | 1009.2 |
| 20260506121516 | 22 | 0.0 | 0.0 | 0.00 | 0.03 | 0.00 | 95 | 1009.2 | |
| 20260506121019 | 22 | 192 | 0.0 | 0.0 | 0.00 | 0.03 | 0.00 | 95 | 1009.2 |
| 20260506120516 | 22 | 144 | 0.0 | 1.6 | 0.00 | 0.03 | 0.00 | 95 | 1009.3 |
| 20260506120021 | 22 | 102 | 0.0 | 0.0 | 0.00 | 0.03 | 0.00 | 94 | 1009.2 |
| 20260506115516 | 23 | 142 | 0.0 | 1.6 | 0.00 | 0.03 | 0.00 | 94 | 1009.1 |
| 20260506115020 | 23 | 161 | 0.0 | 1.6 | 0.00 | 0.03 | 0.00 | 94 | 1009.0 |
| 20260506114517 | 23 | 138 | 0.0 | 1.6 | 0.00 | 0.03 | 0.00 | 94 | 1009.1 |
| 20260506114020 | 23 | 130 | 0.0 | 1.6 | 0.00 | 0.03 | 0.00 | 94 | 1009.1 |
| 20260506113521 | 23 | 172 | 0.0 | 1.6 | 0.00 | 0.03 | 0.00 | 94 | 1009.2 |
| 20260506113018 | 23 | 133 | 0.0 | 3.2 | 0.00 | 0.03 | 0.00 | 94 | 1009.2 |
| 20260506112520 | 23 | 164 | 0.0 | 1.6 | 0.00 | 0.03 | 0.00 | 94 | 1009.2 |
| 20260506112017 | 23 | 359 | 0.0 | 1.6 | 0.00 | 0.03 | 0.00 | 95 | 1009.2 |
| 20260506111517 | 23 | 109 | 0.0 | 1.6 | 0.00 | 0.03 | 0.00 | 95 | 1009.2 |
| 20260506111017 | 23 | 138 | 0.0 | 1.6 | 0.00 | 0.03 | 0.00 | 95 | 1009.2 |
| 20260506110518 | 23 | 162 | 0.0 | 1.6 | 0.00 | 0.03 | 0.00 | 95 | 1009.1 |
| 20260506110018 | 23 | 196 | 0.0 | 0.0 | 0.00 | 0.03 | 0.00 | 95 | 1009.1 |
| 20260506105521 | 23 | 160 | 0.0 | 1.6 | 0.00 | 0.03 | 0.00 | 95 | 1009.1 |
| 20260506105018 | 23 | 127 | 0.0 | 1.6 | 0.00 | 0.03 | 0.00 | 95 | 1009.1 |
| 20260506104521 | 23 | 120 | 0.0 | 1.6 | 0.00 | 0.03 | 0.00 | 95 | 1009.1 |
| 20260506104021 | 23 | 147 | 0.0 | 1.6 | 0.00 | 0.03 | 0.00 | 95 | 1009.0 |
| 20260506103521 | 23 | 187 | 0.0 | 1.6 | 0.00 | 0.03 | 0.00 | 95 | 1008.9 |
| 20260506103018 | 23 | 0.0 | 0.0 | 0.00 | 0.03 | 0.00 | 95 | 1008.9 | |
| 20260506102521 | 23 | 179 | 0.0 | 0.0 | 0.00 | 0.03 | 0.00 | 94 | 1008.9 |
| 20260506102015 | 23 | 173 | 0.0 | 0.0 | 0.00 | 0.03 | 0.00 | 94 | 1008.9 |
| 20260506101516 | 23 | 155 | 0.0 | 1.6 | 0.00 | 0.03 | 0.00 | 94 | 1008.8 |
| 20260506101015 | 23 | 104 | 0.0 | 1.6 | 0.00 | 0.03 | 0.00 | 94 | 1008.8 |
| 20260506100518 | 23 | 153 | 0.0 | 0.0 | 0.00 | 0.03 | 0.00 | 93 | 1008.7 |
| 20260506100015 | 23 | 194 | 0.0 | 3.2 | 0.00 | 0.03 | 0.00 | 93 | 1008.6 |
| 20260506095519 | 23 | 205 | 0.0 | 3.2 | 0.00 | 0.03 | 0.00 | 92 | 1008.5 |
| 20260506095016 | 23 | 131 | 0.0 | 3.2 | 0.00 | 0.03 | 0.00 | 92 | 1008.4 |
| 20260506094516 | 23 | 129 | 0.0 | 3.2 | 0.00 | 0.03 | 0.00 | 92 | 1008.4 |
| 20260506094016 | 23 | 195 | 0.0 | 1.6 | 0.00 | 0.03 | 0.00 | 92 | 1008.3 |
| 20260506093516 | 23 | 237 | 1.6 | 4.8 | 0.00 | 0.03 | 0.00 | 92 | 1008.3 |
| 20260506093017 | 23 | 165 | 0.0 | 3.2 | 0.00 | 0.03 | 0.00 | 92 | 1008.3 |
| 20260506092519 | 23 | 141 | 0.0 | 3.2 | 0.00 | 0.03 | 0.00 | 92 | 1008.2 |
| 20260506092016 | 23 | 124 | 1.6 | 3.2 | 0.00 | 0.03 | 0.00 | 92 | 1008.1 |
| 20260506091516 | 23 | 143 | 1.6 | 4.8 | 0.00 | 0.03 | 0.00 | 92 | 1008.0 |
| 20260506091019 | 23 | 154 | 1.6 | 3.2 | 0.00 | 0.03 | 0.00 | 92 | 1007.9 |
| 20260506090517 | 23 | 138 | 0.0 | 3.2 | 0.00 | 0.03 | 0.00 | 92 | 1007.8 |
| 20260506090017 | 23 | 170 | 0.0 | 3.2 | 0.00 | 0.03 | 0.00 | 92 | 1007.8 |
| 20260506085521 | 23 | 153 | 0.0 | 3.2 | 0.00 | 0.03 | 0.00 | 92 | 1007.8 |
| 20260506085019 | 23 | 182 | 0.0 | 3.2 | 0.00 | 0.03 | 0.00 | 92 | 1007.9 |
| 20260506084517 | 23 | 125 | 0.0 | 3.2 | 0.00 | 0.03 | 0.00 | 92 | 1007.9 |
| 20260506084019 | 23 | 124 | 0.0 | 4.8 | 0.00 | 0.03 | 0.00 | 92 | 1007.9 |
| 20260506083521 | 23 | 166 | 0.0 | 4.8 | 0.00 | 0.03 | 0.00 | 92 | 1007.9 |
| 20260506083020 | 23 | 135 | 0.0 | 3.2 | 0.00 | 0.03 | 0.00 | 92 | 1007.8 |
| 20260506082517 | 23 | 227 | 1.6 | 6.4 | 0.00 | 0.03 | 0.00 | 92 | 1007.9 |
| 20260506082020 | 23 | 134 | 1.6 | 4.8 | 0.00 | 0.03 | 0.00 | 92 | 1007.8 |
| 20260506081517 | 23 | 217 | 1.6 | 6.4 | 0.00 | 0.03 | 0.00 | 91 | 1007.8 |
| 20260506081017 | 23 | 140 | 0.0 | 3.2 | 0.00 | 0.03 | 0.00 | 91 | 1007.9 |
| 20260506080517 | 23 | 139 | 0.0 | 3.2 | 0.00 | 0.03 | 0.00 | 91 | 1007.9 |
| 20260506073518 | 23 | 228 | 1.6 | 8.0 | 0.00 | 0.03 | 0.00 | 91 | 1008.2 |
| 20260506073018 | 23 | 161 | 1.6 | 3.2 | 0.00 | 0.03 | 0.00 | 90 | 1008.2 |
| 20260506072521 | 23 | 175 | 1.6 | 6.4 | 0.00 | 0.03 | 0.00 | 90 | 1008.2 |
| 20260506072021 | 23 | 167 | 1.6 | 6.4 | 0.00 | 0.03 | 0.00 | 90 | 1008.3 |
| 20260506071518 | 23 | 195 | 1.6 | 6.4 | 0.00 | 0.03 | 0.00 | 90 | 1008.3 |
| 20260506071018 | 23 | 170 | 1.6 | 6.4 | 0.00 | 0.03 | 0.00 | 90 | 1008.3 |
| 20260506070519 | 23 | 168 | 1.6 | 4.8 | 0.00 | 0.03 | 0.00 | 90 | 1008.3 |
| 20260506062516 | 23 | 150 | 1.6 | 4.8 | 0.00 | 0.03 | 0.00 | 90 | 1008.3 |
| 20260506062019 | 23 | 188 | 1.6 | 8.0 | 0.00 | 0.03 | 0.00 | 90 | 1008.3 |
| 20260506061519 | 23 | 203 | 1.6 | 4.8 | 0.00 | 0.03 | 0.00 | 90 | 1008.3 |
| 20260506061021 | 23 | 163 | 1.6 | 4.8 | 0.00 | 0.03 | 0.00 | 90 | 1008.2 |
| 20260506060516 | 23 | 137 | 1.6 | 4.8 | 0.00 | 0.03 | 0.00 | 91 | 1008.3 |
| 20260506051017 | 23 | 151 | 1.6 | 4.8 | 0.00 | 0.03 | 0.00 | 90 | 1008.3 |
| 20260506050517 | 23 | 133 | 1.6 | 4.8 | 0.00 | 0.03 | 0.00 | 90 | 1008.2 |
| 20260506045017 | 23 | 136 | 1.6 | 3.2 | 0.00 | 0.03 | 0.00 | 90 | 1008.3 |
| 20260506044521 | 23 | 122 | 1.6 | 6.4 | 0.00 | 0.03 | 0.00 | 90 | 1008.3 |
| 20260506044018 | 23 | 162 | 1.6 | 6.4 | 0.00 | 0.03 | 0.00 | 90 | 1008.2 |
| 20260506043518 | 23 | 167 | 1.6 | 6.4 | 0.00 | 0.03 | 0.00 | 90 | 1008.3 |
| 20260506043018 | 23 | 160 | 0.0 | 4.8 | 0.00 | 0.03 | 0.00 | 90 | 1008.3 |
| 20260506042518 | 24 | 157 | 1.6 | 3.2 | 0.00 | 0.03 | 0.00 | 89 | 1008.3 |
| 20260506042015 | 24 | 118 | 1.6 | 4.8 | 0.00 | 0.03 | 0.00 | 89 | 1008.1 |
| 20260506041515 | 24 | 158 | 1.6 | 4.8 | 0.00 | 0.03 | 0.00 | 89 | 1008.1 |
| 20260506041021 | 24 | 143 | 1.6 | 3.2 | 0.00 | 0.03 | 0.00 | 88 | 1008.1 |
| 20260506040519 | 24 | 132 | 1.6 | 4.8 | 0.00 | 0.03 | 0.00 | 88 | 1008.1 |
| 20260506040015 | 24 | 136 | 1.6 | 4.8 | 0.00 | 0.03 | 0.00 | 88 | 1008.0 |
| 20260506035515 | 24 | 193 | 1.6 | 4.8 | 0.00 | 0.03 | 0.00 | 88 | 1007.9 |
| 20260506035018 | 24 | 135 | 1.6 | 4.8 | 0.00 | 0.03 | 0.00 | 88 | 1007.7 |
| 20260506034515 | 24 | 151 | 1.6 | 3.2 | 0.00 | 0.03 | 0.00 | 87 | 1007.7 |
| 20260506034019 | 24 | 117 | 1.6 | 3.2 | 0.00 | 0.03 | 0.00 | 87 | 1007.7 |
| 20260506033518 | 24 | 139 | 1.6 | 3.2 | 0.00 | 0.03 | 0.00 | 87 | 1007.8 |
| 20260506033015 | 25 | 146 | 1.6 | 4.8 | 0.00 | 0.03 | 0.00 | 87 | 1007.7 |
| 20260506032516 | 25 | 147 | 1.6 | 6.4 | 0.00 | 0.03 | 0.00 | 86 | 1007.7 |
| 20260506032016 | 25 | 161 | 1.6 | 4.8 | 0.00 | 0.03 | 0.00 | 86 | 1007.6 |
| 20260506031516 | 25 | 158 | 1.6 | 6.4 | 0.00 | 0.03 | 0.00 | 86 | 1007.6 |
| 20260506031016 | 25 | 166 | 1.6 | 3.2 | 0.00 | 0.03 | 0.00 | 85 | 1007.6 |
| 20260506030519 | 25 | 158 | 1.6 | 3.2 | 0.00 | 0.03 | 0.00 | 85 | 1007.5 |
| 20260506030020 | 25 | 154 | 1.6 | 3.2 | 0.00 | 0.03 | 0.00 | 84 | 1007.4 |
| 20260506025516 | 25 | 151 | 1.6 | 6.4 | 0.00 | 0.03 | 0.00 | 84 | 1007.4 |
| 20260506025016 | 25 | 176 | 1.6 | 3.2 | 0.00 | 0.03 | 0.00 | 83 | 1007.3 |
| 20260506024517 | 25 | 184 | 0.0 | 3.2 | 0.00 | 0.03 | 0.00 | 83 | 1007.2 |
| 20260506024016 | 25 | 166 | 0.0 | 3.2 | 0.00 | 0.03 | 0.00 | 82 | 1007.1 |
| 20260506023516 | 25 | 170 | 0.0 | 1.6 | 0.00 | 0.03 | 0.00 | 82 | 1006.9 |
| 20260506023020 | 25 | 151 | 0.0 | 3.2 | 0.00 | 0.03 | 0.00 | 82 | 1006.8 |
| 20260506022516 | 25 | 156 | 0.0 | 1.6 | 0.00 | 0.03 | 0.00 | 81 | 1006.7 |
| 20260506022017 | 25 | 151 | 0.0 | 3.2 | 0.00 | 0.03 | 0.00 | 81 | 1006.6 |
| 20260506021517 | 25 | 119 | 0.0 | 1.6 | 0.00 | 0.03 | 0.00 | 81 | 1006.6 |
| 20260506021017 | 25 | 157 | 0.0 | 1.6 | 0.00 | 0.03 | 0.00 | 81 | 1006.5 |
| 20260506020517 | 25 | 111 | 0.0 | 4.8 | 0.00 | 0.03 | 0.00 | 81 | 1006.3 |
| 20260506020020 | 26 | 176 | 0.0 | 1.6 | 0.00 | 0.03 | 0.00 | 80 | 1006.2 |
| 20260506015517 | 26 | 153 | 0.0 | 3.2 | 0.00 | 0.03 | 0.00 | 80 | 1006.3 |
| 20260506015020 | 26 | 155 | 0.0 | 1.6 | 0.00 | 0.03 | 0.00 | 80 | 1006.3 |
| 20260506014517 | 26 | 133 | 0.0 | 1.6 | 0.00 | 0.03 | 0.00 | 80 | 1006.2 |
| 20260506014017 | 26 | 130 | 0.0 | 3.2 | 0.00 | 0.03 | 0.00 | 80 | 1006.1 |
| 20260506013520 | 26 | 170 | 0.0 | 1.6 | 0.00 | 0.03 | 0.00 | 80 | 1006.2 |
| 20260506013017 | 26 | 163 | 0.0 | 1.6 | 0.00 | 0.03 | 0.00 | 79 | 1006.2 |
| 20260506012517 | 26 | 132 | 0.0 | 3.2 | 0.00 | 0.03 | 0.00 | 79 | 1006.1 |
| 20260506012021 | 26 | 145 | 0.0 | 3.2 | 0.00 | 0.03 | 0.00 | 79 | 1006.1 |
| 20260506011521 | 26 | 150 | 0.0 | 1.6 | 0.00 | 0.03 | 0.00 | 78 | 1006.1 |
| 20260506011018 | 26 | 156 | 0.0 | 1.6 | 0.00 | 0.03 | 0.00 | 78 | 1006.2 |
| 20260506010521 | 26 | 99 | 0.0 | 1.6 | 0.00 | 0.03 | 0.00 | 78 | 1006.2 |
| 20260506010021 | 26 | 111 | 0.0 | 3.2 | 0.00 | 0.03 | 0.00 | 77 | 1006.2 |
| 20260506005518 | 27 | 170 | 0.0 | 1.6 | 0.00 | 0.03 | 0.00 | 77 | 1006.2 |
| 20260506005018 | 27 | 197 | 0.0 | 1.6 | 0.00 | 0.03 | 0.00 | 76 | 1006.2 |
| 20260506004518 | 27 | 136 | 0.0 | 3.2 | 0.00 | 0.03 | 0.00 | 76 | 1006.2 |
| 20260506004018 | 27 | 131 | 0.0 | 3.2 | 0.00 | 0.03 | 0.00 | 75 | 1006.2 |
| 20260506003518 | 27 | 178 | 0.0 | 1.6 | 0.00 | 0.03 | 0.00 | 75 | 1006.1 |
| 20260506003018 | 27 | 197 | 0.0 | 3.2 | 0.00 | 0.03 | 0.00 | 75 | 1006.2 |
| 20260506002518 | 27 | 150 | 0.0 | 1.6 | 0.00 | 0.03 | 0.00 | 74 | 1006.2 |
| 20260506002018 | 27 | 96 | 0.0 | 3.2 | 0.00 | 0.03 | 0.00 | 73 | 1006.2 |
| 20260506001516 | 27 | 136 | 0.0 | 1.6 | 0.00 | 0.03 | 0.00 | 73 | 1006.2 |
| 20260506001019 | 27 | 130 | 0.0 | 1.6 | 0.00 | 0.03 | 0.00 | 72 | 1006.1 |
| 20260506000519 | 27 | 187 | 0.0 | 1.6 | 0.00 | 0.03 | 0.00 | 72 | 1006.1 |
| 20260506000019 | 28 | 151 | 1.6 | 4.8 | 0.00 | 0.03 | 0.00 | 72 | 1006.0 |
| 20260505235516 | 28 | 227 | 0.0 | 3.2 | 0.00 | 0.03 | 0.03 | 72 | 1006.0 |
| 20260505235016 | 28 | 99 | 0.0 | 3.2 | 0.00 | 0.03 | 0.03 | 71 | 1005.9 |
| 20260505234516 | 28 | 148 | 0.0 | 3.2 | 0.00 | 0.03 | 0.03 | 71 | 1005.8 |
| 20260505234021 | 28 | 155 | 1.6 | 4.8 | 0.00 | 0.03 | 0.03 | 71 | 1005.8 |
| 20260505233516 | 28 | 108 | 0.0 | 4.8 | 0.00 | 0.03 | 0.03 | 71 | 1005.8 |
| 20260505233021 | 28 | 136 | 1.6 | 4.8 | 0.00 | 0.03 | 0.03 | 71 | 1005.7 |
| 20260505232516 | 28 | 96 | 1.6 | 4.8 | 0.00 | 0.03 | 0.03 | 71 | 1005.8 |
| 20260505232017 | 28 | 231 | 1.6 | 6.4 | 0.00 | 0.03 | 0.03 | 71 | 1005.7 |
| 20260505231517 | 28 | 126 | 1.6 | 3.2 | 0.00 | 0.03 | 0.03 | 70 | 1005.7 |
| 20260505231019 | 28 | 137 | 1.6 | 3.2 | 0.00 | 0.03 | 0.03 | 70 | 1005.7 |
| 20260505230517 | 28 | 119 | 0.0 | 3.2 | 0.00 | 0.03 | 0.03 | 70 | 1005.7 |
| 20260505230016 | 29 | 137 | 0.0 | 3.2 | 0.00 | 0.03 | 0.03 | 69 | 1005.7 |
| 20260505225516 | 29 | 123 | 0.0 | 3.2 | 0.00 | 0.03 | 0.03 | 69 | 1005.6 |
| 20260505225020 | 29 | 90 | 1.6 | 4.8 | 0.00 | 0.03 | 0.03 | 68 | 1005.6 |
| 20260505224520 | 29 | 93 | 0.0 | 3.2 | 0.00 | 0.03 | 0.03 | 69 | 1005.7 |
| 20260505224020 | 29 | 213 | 1.6 | 6.4 | 0.00 | 0.03 | 0.03 | 68 | 1005.5 |
| 20260505223521 | 29 | 116 | 1.6 | 4.8 | 0.00 | 0.03 | 0.03 | 68 | 1005.5 |
| 20260505223017 | 30 | 149 | 1.6 | 4.8 | 0.00 | 0.03 | 0.03 | 67 | 1005.6 |
| 20260505222518 | 30 | 128 | 1.6 | 4.8 | 0.00 | 0.03 | 0.03 | 66 | 1005.5 |
| 20260505222020 | 30 | 94 | 1.6 | 3.2 | 0.00 | 0.03 | 0.03 | 66 | 1005.5 |
| 20260505221520 | 30 | 108 | 1.6 | 4.8 | 0.00 | 0.03 | 0.03 | 66 | 1005.6 |
| 20260505221020 | 30 | 129 | 1.6 | 3.2 | 0.00 | 0.03 | 0.03 | 67 | 1005.7 |
| 20260505220520 | 30 | 153 | 1.6 | 3.2 | 0.00 | 0.03 | 0.03 | 65 | 1005.7 |
| 20260505220021 | 30 | 143 | 1.6 | 4.8 | 0.00 | 0.03 | 0.03 | 65 | 1005.7 |
| 20260505215518 | 30 | 126 | 1.6 | 4.8 | 0.00 | 0.03 | 0.03 | 64 | 1005.7 |